Flag for Germany Weather past 2 weeks in Bretten, Baden-Württemberg, Germany

Now
64 °F

Clear.


Feels Like: 64 °F
Forecast: 60 / 88 °F
Wind: 7 mph from Southwest

Location: Karlsruhe - Baden Wurttemberg

Current Time: Aug 2, 2015 at 2:56:53 AM

Latest Report: Aug 1, 2015 at 11:50 PM


Visibility: 10 mi

Pressure: 30.04 "Hg

Humidity: 73%

Dew point: 55 °F

Location of BrettenLocation

Historic Weather in Bretten — Graph

°F

Bretten temperature yesterday

Maximum temperature yesterday: 75 °F (at 1:50 PM)
Minimum temperature yesterday: 59 °F (at 4:50 AM)
Average temperature yesterday: 68 °F

Past Weeks' High & Low Weather Summary

 TemperatureHumidityPressure
High91 °F (Jul 21, 5:50 PM)94% (Jul 18, 6:20 AM)30.09 "Hg (Jul 18, 6:20 AM)
Low46 °F (Jul 26, 6:50 AM)29% (Jul 21, 5:20 PM)29.65 "Hg (Jul 24, 8:20 PM)
Average71 °F55%29.92 "Hg
* Reported Jul 17 11:20 PM — Aug 1 11:50 PM, Bretten, Weather by CustomWeather, © 2015

Note: Actual official high and low records may vary slightly from our data, if they occured in-between our weather recording intervals... More about our weather records

Advertising

Bretten weather history for previous 24 hours

 ConditionsComfort  
Time TempWeatherWind HumidityBarometerVisibility
11:50 PM
Sat, Aug 1
64 °FClear.7 mph73%30.04 "Hg10 mi
11:20 PM64 °FClear.6 mph73%30.04 "Hg10 mi
10:50 PM66 °FClear.6 mph68%30.01 "Hg10 mi
10:20 PM68 °FClear.7 mph64%30.01 "Hg10 mi
9:50 PM70 °FSunny.7 mph57%30.01 "Hg10 mi
9:20 PM70 °FSunny.8 mph57%29.98 "Hg10 mi
8:50 PM72 °FSunny.9 mph53%29.98 "Hg10 mi
8:20 PM72 °FSunny.8 mph53%29.98 "Hg10 mi
7:50 PM72 °FSunny.8 mph53%29.98 "Hg10 mi
7:20 PM72 °FSunny.9 mph53%29.98 "Hg10 mi
6:50 PM73 °FSunny.8 mph44%29.95 "Hg10 mi
6:20 PM73 °FSunny.8 mph44%29.95 "Hg10 mi
5:50 PM75 °FSunny.10 mph41%29.95 "Hg10 mi
5:20 PM75 °FSunny.6 mph41%29.95 "Hg10 mi
4:50 PM75 °FSunny.5 mph39%29.95 "Hg10 mi
4:20 PM75 °FSunny.6 mph41%29.95 "Hg10 mi
3:50 PM75 °FSunny.7 mph41%29.95 "Hg10 mi
3:20 PM75 °FSunny.8 mph41%29.95 "Hg10 mi
2:50 PM75 °FSunny.7 mph44%29.95 "Hg10 mi
2:20 PM75 °FPassing clouds.6 mph41%29.95 "HgN/A
1:50 PM75 °FPassing clouds.8 mph41%29.95 "HgN/A
1:20 PM73 °FSunny.8 mph44%29.95 "Hg10 mi
12:50 PM72 °FSunny.9 mph47%29.98 "Hg10 mi
12:20 PM70 °FSunny.13 mph50%29.98 "Hg10 mi
11:50 AM70 °FSunny.8 mph46%29.98 "Hg10 mi
11:20 AM68 °FSunny.9 mph46%29.98 "Hg10 mi
10:50 AM66 °FSunny.9 mph49%29.98 "Hg10 mi
10:20 AM63 °FSunny.7 mph59%29.98 "Hg10 mi
9:50 AM63 °FSunny.5 mph56%29.98 "Hg10 mi
9:20 AM61 °FSunny.5 mph59%29.95 "Hg10 mi
8:50 AM61 °FSunny.2 mph59%29.95 "Hg10 mi
8:20 AM61 °FSunny.1 mph59%29.95 "Hg10 mi
7:50 AM59 °FSunny.3 mph63%29.92 "Hg10 mi
7:20 AM59 °FSunny.5 mph63%29.92 "Hg10 mi
6:50 AM59 °FClear.6 mph59%29.92 "Hg10 mi
6:20 AM59 °FClear.6 mph59%29.89 "Hg10 mi
5:50 AM59 °FClear.6 mph59%29.89 "Hg10 mi
5:20 AM59 °FClear.6 mph59%29.89 "Hg10 mi
4:50 AM59 °FClear.7 mph59%29.89 "Hg10 mi
Weather by CustomWeather, © 2015

See weather overviewHow to use our weather pages